SCP
0 0 0 0 0 0 0 0 0 0 0 0 0 0 0 0 0 0 0 0 0 0 0 0 0 0 0 0 0 0 0 0 0 0 0 0 0 0 0 0 0 0 0
0 0 0 0 0 0 0 0 0 0 0 0 0 0 0 0 0 0 0 0 0 0 0 0 0 0 0 0 0 0 0 0 0 0 0 0 0 0 0 0 0 0 0
0 0 0 0 0 0 0 0 0 0 0 0 0 0 0 0 0 0 0 0 0 0 0 0 0 0 0 0 0 0 0 0 0 0 0 0 0 0 0 0 0 0 0
0 0 0 0 0 0 0 0 0 0 0 0 0 0 0 0 0 0 0 0 0 0 0 0 0 0 0 0 0 0 0 0 0 0 0 0 0 0 0 0 0 0 0
0 0 0 0 0 0 0 0 0 0 0 0 0 0 0 0 0 0 0 0 0 0 0 0 0 0 0 0 0 0 0 0 0 0 0 0 0 0 0 0 0 0 0
0 0 0 0 0 0 0 0 0 0 0 0 0 0 0 0 0 0 0 0 0 0 0 0 0 0 0 0 0 0 0 0 0 0 0 0 0 0 0 0 0 0 0
0 0 0 0 0 0 0 0 0 0 0 0 0 0 0 0 0 0 0 0 0 0 0 0 0 0 0 0 0 0 0 0 0 0 0 0 0 0 0 0 0 0 0
0 0 0 0 0 0 0 0 0 0 0 0 0 0 0 0 0 0 0 0 0 0 0 0 0 0 0 0 0 0 0 0 0 0 0 0 0 0 0 0 0 0 0
0 0 0 0 0 0 0 0 0 0 0 0 0 0 0 0 0 0 0 0 0 0 0 0 0 0 0 0 0 0 0 0 0 0 0 0 0 0 0 0 0 0 0
0 0 0 0 0 0 0 0 0 0 0 0 0 0 0 0 0 0 0 0 0 0 0 0 0 0 0 0 0 0 0 0 0 0 0 0 0 0 0 0 0 0 0
0 0 0 0 0 0 0 0 0 0 0 0 0 0 0 0 0 0 0 0 0 0 0 0 0 0 0 0 0 0 0 0 0 0 0 0 0 0 0 0 0 0 0
0 0 0 0 0 0 0 0 0 0 0 0 0 0 0 0 0 0 0 0 0 0 0 0 0 0 0 0 0 0 0 0 0 0 0 0 0 0 0 0 0 0 0
0 0 0 0 0 0 0 0 0 0 0 0 0 0 0 0 0 0 0 0 0 0 0 0 0 0 0 0 0 0 0 0 0 0 0 0 0 0 0 0 0 0 0
0 0 0 0 0 0 0 0 0 0 0 0 0 0 0 0 0 0 0 0 0 0 0 0 0 0 0 0 0 0 0 0 0 0 0 0 0 0 0 0 0 0 0
0 0 0 0 0 0 0 0 0 0 0 0 0 0 0 0 0 0 0 0 0 0 0 0 0 0 0 0 0 0 0 0 0 0 0 0 0 0 0 0 0 0 0
0 0 0 0 0 0 0 0 0 0 0 0 0 0 0 0 0 0 0 0 0 0 0 0 0 0 0 0 0 0 0 0 0 0 0 0 0 0 0 0 0 0 0
0 0 0 0 0 0 0 0 0 0 0 0 0 0 0 0 0 0 0 0 0 0 0 0 0 0 0 0 0 0 0 0 0 0 0 0 0 0 0 0 0 0 0
0 0 0 0 0 0 0 0 0 0 0 0 0 0 0 0 0 0 0 0 0 0 0 0 0 0 0 0 0 0 0 0 0 0 0 0 0 0 0 0 0 0 0
0 0 0 0 0 0 0 0 0 0 0 0 0 0 0 0 0 0 0 0 0 0 0 0 0 0 0 0 0 0 0 0 0 0 0 0 0 0 0 0 0 0 0
0 0 0 0 0 0 0 0 0 0 0 0 0 0 0 0 0 0 0 0 0 0 0 0 0 0 0 0 0 0 0 0 0 0 0 0 0 0 0 0 0 0 0
0 0 0 0 0 0 0 0 0 0 0 0 0 0 0 0 0 0 0 0 0 0 0 0 0 0 0 0 0 0 0 0 0 0 0 0 0 0 0 0 0 0 0
0 0 0 0 0 0 0 0 0 0 0 0 0 0 0 0 0 0 0 0 0 0 0 0 0 0 0 0 0 0 0 0 0 0 0 0 0 0 0 0 0 0 0
0 0 0 0 0 0 0 0 0 0 0 0 0 0 0 0 0 0 0 0 0 0 0 0 0 0 0 0 0 0 0 0 0 0 0 0 0 0 0 0 0 0 0
0 0 0 0 0 0 0 0 0 0 0 0 0 0 0 0 0 0 0 0 0 0 0 0 0 0 0 0 0 0 0 0 0 0 0 0 0 0 0 0 0 0 0
0 0 0 0 0 0 0 0 0 0 0 0 0 0 0 0 0 0 0 0 0 0 0 0 0 0 0 0 0 0 0 0 0 0 0 0 0 0 0 0 0 0 0
0 0 0 0 0 0 0 0 0 0 0 0 0 0 0 0 0 0 0 0 0 0 0 0 0 0 0 0 0 0 0 0 0 0 0 0 0 0 0 0 0 0 0
Wind_Speed
8 11 10 11 11 12 13 13 13 13 13 13 13 13 14 14 14 14 14 15 16 16 17 17 17 18 18 18 18 18 18 18 18 18 18 17 17 17 17 16 14 11 17
12 12 10 10 11 12 13 13 12 12 13 13 13 13 13 14 14 14 14 14 15 16 16 16 17 17 17 17 16 16 16 15 14 14 15 15 16 17 18 17 16 11 17
13 12 10 10 11 12 12 12 11 12 12 13 13 13 13 13 13 14 14 14 14 15 16 16 16 16 15 15 15 14 12 11 9 9 11 7 10 17 17 16 16 16 16
12 11 11 11 11 12 12 11 11 11 12 12 12 12 12 12 13 13 13 13 13 14 15 15 15 14 14 14 13 11 9 8 7 8 7 7 8 14 15 15 16 16 16
10 10 12 11 11 12 11 11 11 11 11 11 12 12 12 12 12 12 13 12 13 13 14 14 14 13 13 12 11 9 7 7 7 8 7 7 6 12 14 14 15 15 15
10 11 11 11 11 11 11 11 11 11 11 11 11 11 11 11 11 12 12 12 12 13 13 13 13 12 12 11 9 7 6 7 5 6 6 6 5 11 13 13 13 13 13
9 10 11 10 10 10 10 11 11 11 11 11 11 11 11 11 11 11 12 12 12 12 12 12 12 11 10 9 7 6 7 8 5 6 6 6 6 11 12 11 11 12 12
8 10 10 9 10 10 10 10 10 10 10 10 11 11 10 10 10 10 11 11 11 11 12 11 10 10 9 7 6 6 7 7 5 7 6 5 7 9 10 10 10 11 11
9 9 9 8 8 9 9 9 9 10 10 10 10 10 9 9 9 9 9 10 10 10 11 10 9 8 8 6 4 4 6 7 3 4 7 4 6 8 9 9 9 9 9
7 7 8 8 8 7 7 8 9 9 9 9 9 9 9 8 8 8 8 8 10 10 10 10 9 8 7 5 2 3 6 6 2 5 4 4 6 7 8 7 7 8 8
6 6 7 7 7 8 8 9 8 9 9 9 8 10 8 5 5 5 7 8 8 8 9 9 8 7 6 3 1 3 5 1 3 4 4 4 6 6 6 6 6 7 7
7 6 5 6 7 7 7 7 5 6 6 6 6 6 5 4 4 6 8 8 8 8 7 7 8 7 5 3 3 3 2 1 2 3 3 5 4 4 4 4 5 6 7
8 7 6 6 6 6 5 6 4 4 5 5 7 7 4 4 4 4 4 4 5 6 4 5 5 3 4 2 2 2 1 1 1 3 3 4 3 2 3 3 4 5 6
8 9 8 7 6 6 5 5 4 4 4 4 6 7 4 3 4 4 4 4 4 3 4 4 3 4 3 2 2 1 0 1 1 2 3 4 2 1 2 3 4 5 5
9 9 9 8 7 6 5 4 5 5 5 5 5 6 6 4 4 4 4 4 5 4 4 4 4 4 3 3 2 2 2 1 0 1 3 4 3 2 3 4 4 5 5
10 10 9 9 8 7 6 5 4 5 5 5 5 6 6 5 5 4 4 4 4 4 4 4 5 4 3 3 3 3 3 2 2 2 3 4 5 5 5 6 6 6 6
10 10 11 10 10 9 7 7 5 4 5 5 5 6 7 6 6 5 4 5 4 4 5 4 4 3 3 4 4 4 3 3 3 3 3 3 4 6 6 8 8 8 8
10 11 11 10 11 10 9 7 5 5 5 5 5 6 7 7 7 6 5 5 5 4 4 4 3 3 3 3 3 4 4 3 4 4 4 4 4 4 6 9 9 9 9
11 12 12 12 12 11 10 7 6 5 6 5 5 6 7 8 8 6 5 5 6 5 5 5 4 4 4 4 4 4 4 4 5 5 5 5 5 5 4 7 10 10 11
11 11 12 13 12 11 9 7 6 7 6 6 6 7 8 8 9 7 6 7 7 5 5 5 5 5 4 4 4 4 4 4 4 5 6 6 5 6 6 6 5 7 12
10 11 12 13 13 11 10 10 10 9 8 7 7 8 9 9 10 9 7 7 7 7 7 7 6 6 5 3 2 3 4 6 7 6 6 6 6 7 6 7 5 5 5
11 12 12 13 13 13 11 10 8 7 7 8 7 9 10 11 11 10 10 8 8 7 8 9 7 5 5 5 4 2 3 4 7 8 7 7 7 6 7 8 7 7 6
12 13 12 13 14 14 13 8 7 7 6 8 10 10 12 12 11 11 12 10 10 10 9 10 9 10 7 6 6 5 5 6 3 4 8 7 7 6 6 6 8 8 7
11 12 13 13 13 13 13 12 12 12 13 13 10 9 10 12 13 13 12 12 11 10 10 11 11 9 8 7 6 7 6 4 3 2 3 5 7 7 7 6 7 8 8
10 10 12 12 13 13 14 15 14 13 12 8 8 10 11 12 14 14 14 13 13 11 12 11 11 11 10 9 7 5 7 6 5 4 4 3 4 5 7 7 6 7 8
8 9 10 12 13 13 14 15 16 16 14 11 11 11 11 10 11 15 16 15 14 13 13 13 12 13 12 11 9 7 6 6 7 7 8 6 5 5 7 7 7 8 7
Wind_Direction
120 122 131 129 127 125 122 120 119 116 113 110 106 103 100 96 94 91 89 88 88 88 87 85 84 82 82 81 80 80 80 80 80 79 76 75 74 72 72 72 69 65 70
120 124 130 129 129 128 124 123 122 120 117 114 110 107 103 100 97 95 92 91 92 91 90 88 87 85 84 83 82 83 82 82 81 82 78 73 73 72 70 69 70 69 69
119 127 131 127 129 128 127 125 125 122 120 118 115 111 107 104 102 99 96 94 96 95 94 92 90 88 86 85 84 83 81 74 64 76 82 74 71 73 72 68 67 66 68
125 135 132 129 130 131 131 129 127 125 123 121 118 115 111 107 106 105 102 100 100 99 98 96 93 91 89 88 86 84 74 54 43 64 74 70 69 72 70 68 67 66 67
125 125 126 133 134 135 135 133 131 128 125 124 121 118 115 111 109 109 106 104 103 102 101 99 96 94 92 90 88 80 56 27 31 70 79 74 68 74 73 72 70 67 66
125 123 131 136 138 139 138 137 135 133 129 126 124 121 119 115 113 112 110 108 106 106 104 101 99 96 93 91 86 68 33 12 36 76 78 77 72 79 79 76 73 72 70
127 125 136 137 138 140 142 142 140 136 133 131 128 126 123 119 117 116 114 113 112 109 107 106 103 99 95 91 80 47 15 8 75 76 76 71 73 83 81 79 77 75 75
128 127 136 135 138 141 143 143 141 138 135 135 133 131 128 125 123 122 121 120 118 116 114 111 108 104 100 92 72 29 6 14 65 84 82 73 78 86 83 80 78 80 80
131 135 143 148 146 143 142 141 141 138 136 135 134 132 129 126 123 121 122 126 126 124 121 118 115 110 106 96 68 10 352 0 30 84 88 74 74 89 86 81 81 86 86
137 148 154 159 158 154 147 143 141 138 137 134 130 129 127 124 122 125 126 128 133 131 129 128 126 122 117 108 73 337 330 335 54 80 82 76 77 90 92 86 85 91 93
151 162 163 163 162 159 159 153 146 142 140 136 133 138 140 147 140 142 139 132 135 136 138 140 138 136 133 135 188 293 314 318 74 82 81 84 91 96 98 95 98 103 101
174 178 172 170 166 164 162 153 161 159 156 163 155 161 180 172 154 147 136 135 136 139 145 153 155 159 170 181 215 256 278 300 92 104 100 95 93 103 109 106 115 115 112
180 181 184 180 171 167 156 159 166 165 168 180 168 177 184 161 140 134 135 137 141 152 160 161 170 205 211 187 182 206 254 342 84 109 116 113 97 111 134 135 138 134 130
185 184 187 185 176 172 166 171 167 165 170 176 173 176 173 160 160 160 159 167 173 182 180 176 196 213 206 191 188 193 224 305 85 110 133 139 136 171 182 179 166 162 154
192 186 186 188 184 179 176 179 176 173 175 177 172 177 174 169 176 174 175 174 181 185 186 187 197 198 193 201 210 204 215 246 228 148 147 168 176 204 221 207 196 189 182
195 190 186 189 189 185 184 186 183 178 177 178 175 182 183 179 178 179 180 180 188 186 184 191 196 189 191 195 212 214 213 220 220 203 171 182 198 209 224 226 224 214 202
194 190 189 190 190 190 193 192 190 187 180 184 180 186 189 189 181 180 183 185 192 189 187 189 202 187 189 196 209 216 216 227 225 219 201 188 194 211 222 230 233 224 216
190 190 191 189 191 193 195 198 195 193 188 189 185 187 193 196 189 183 187 190 190 185 182 186 195 189 198 203 210 214 210 217 230 228 219 209 198 198 215 225 228 224 223
191 188 190 189 192 194 194 197 201 199 198 195 192 192 194 198 196 189 191 192 187 186 185 189 194 190 198 208 215 217 213 210 218 221 225 222 214 204 200 214 219 222 226
191 188 190 190 192 191 193 198 203 208 207 204 202 201 196 198 198 194 194 194 187 187 191 192 195 199 200 199 213 224 225 221 215 215 219 221 217 213 208 204 207 222 227
190 190 191 193 192 189 194 198 202 208 208 209 209 206 202 199 198 198 197 197 194 194 196 194 191 200 207 192 197 241 251 235 229 222 216 215 217 214 210 209 204 205 218
193 194 196 197 194 194 198 200 203 204 209 213 213 213 210 205 201 203 202 200 198 198 199 200 195 194 199 187 175 186 256 260 235 225 215 214 216 210 213 212 209 211 209
196 197 200 201 199 199 196 192 196 203 210 212 213 214 212 208 205 205 206 204 203 202 206 205 200 197 201 200 189 178 196 226 247 229 216 214 211 212 214 211 213 214 211
203 199 200 202 202 200 195 196 197 203 211 215 212 212 208 207 209 209 208 208 208 207 208 207 205 203 197 202 204 213 217 197 201 264 248 220 212 216 216 216 216 215 212
205 200 199 202 206 203 200 200 202 211 217 216 210 210 208 208 210 212 211 211 213 213 211 207 206 206 206 207 202 196 221 239 233 224 252 238 226 223 218 218 216 215 213
209 201 199 202 208 208 206 205 207 212 214 214 213 212 209 208 209 212 214 214 215 216 215 212 210 209 210 211 210 202 191 198 208 214 233 236 231 223 215 217 217 217 214